Regional Weather Roundup
Issued by NWS Goodland, KS

Home | Current Version | Previous Version | Text Only | Print | Product List | Glossary On
Versions: 1 2 3 4 5 6 7 8 9 10 11 12 13 14 15 16 17 18 19 20 21 22 23 24 25 26 27 28 29 30 31 32 33 34 35 36 37 38 39 40 41 42 43 44 45 46 47 48 49 50
481
ASUS43 KGLD 120408
RWRGLD

GOODLAND FORECAST AREA HOURLY WEATHER ROUNDUP
NATIONAL WEATHER SERVICE GOODLAND KS
900 PM MST THU FEB 11 2016

...OFFICIAL OBSERVATIONS...

CITY           SKY/WX    TMP DP  RH WIND       PRES   REMARKS
GOODLAND KS    CLEAR     34  27  75 W9        30.22R
HILL CITY KS   CLEAR     35  32  88 W7        30.16S
IMPERIAL NEB   CLOUDY    42  29  59 NW13      30.19R
MCCOOK NEB     CLOUDY    38  31  76 NW13      30.17R
AKRON CO       CLOUDY    35  26  69 N9        30.24R
BURLINGTON CO  CLOUDY    34  27  75 NW10      30.23S
LIMON CO       CLOUDY    29  24  82 NW7       30.27R
$$

...UNOFFICIAL OBSERVATIONS...

CITY           SKY/WX    TMP DP  RH WIND       PRES   REMARKS
COLBY KS       CLEAR     39  34  81 W12       30.20S
GOVE KS          N/A     36  32  85 MISG        N/A
LENORA KS        N/A     42  32  68 MISG        N/A
NORTON KS      CLEAR     36  28  75 W9        30.14
SHARON SPRINGS   N/A     38  30  72 NW5         N/A
TRENTON NEB      N/A     39  32  76 MISG        N/A
KIT CARSON CO    N/A     40  29  64 MISG        N/A
YUMA CO          N/A     35  29  80 CALM        N/A
$$




USA.gov is the U.S. government's official web portal to all federal, state and local government web resources and services.